TimeMDT,TemperatureF,Dew PointF,Humidity,Sea Level PressureIn,VisibilityMPH,Wind Direction,Wind SpeedMPH,Gust SpeedMPH,PrecipitationIn,Events,Conditions,WindDirDegrees,DateUTC
12:53 AM,72.0,48.0,43,29.91,10.0,WSW,5.8,-,N/A,,Overcast,240,2013-08-25 06:53:00
1:53 AM,69.1,48.0,47,29.90,10.0,South,3.5,-,N/A,,Partly Cloudy,180,2013-08-25 07:53:00
2:53 AM,66.9,46.9,49,29.90,10.0,WSW,5.8,-,N/A,,Clear,240,2013-08-25 08:53:00
3:53 AM,69.1,46.9,45,29.90,10.0,West,3.5,-,N/A,,Clear,270,2013-08-25 09:53:00
4:53 AM,66.0,46.9,50,29.91,10.0,Calm,Calm,-,N/A,,Clear,0,2013-08-25 10:53:00
5:53 AM,62.1,46.9,58,29.93,10.0,WNW,8.1,-,N/A,,Clear,300,2013-08-25 11:53:00
6:53 AM,68.0,46.0,45,29.93,10.0,NNW,3.5,-,N/A,,Clear,340,2013-08-25 12:53:00
7:53 AM,66.9,48.9,52,29.94,10.0,South,3.5,-,N/A,,Clear,190,2013-08-25 13:53:00
8:53 AM,71.1,48.9,45,29.95,10.0,South,3.5,-,N/A,,Clear,180,2013-08-25 14:53:00
9:53 AM,71.1,48.9,45,29.96,10.0,Calm,Calm,-,N/A,,Partly Cloudy,0,2013-08-25 15:53:00
10:53 AM,73.9,50.0,43,29.96,10.0,Calm,Calm,-,N/A,,Mostly Cloudy,0,2013-08-25 16:53:00
11:53 AM,75.9,50.0,40,29.96,10.0,NNW,8.1,-,N/A,,Overcast,340,2013-08-25 17:53:00
12:53 PM,82.9,44.1,25,29.92,10.0,NNW,5.8,-,N/A,,Partly Cloudy,340,2013-08-25 18:53:00
1:53 PM,86.0,42.1,21,29.90,10.0,East,9.2,17.3,N/A,,Clear,100,2013-08-25 19:53:00
2:53 PM,88.0,39.9,18,29.88,10.0,Variable,6.9,18.4,N/A,,Clear,0,2013-08-25 20:53:00
3:53 PM,87.1,39.9,19,29.87,10.0,East,5.8,-,N/A,,Scattered Clouds,100,2013-08-25 21:53:00
4:53 PM,87.1,39.9,19,29.87,10.0,SE,5.8,-,N/A,,Mostly Cloudy,140,2013-08-25 22:53:00
5:53 PM,87.1,39.0,18,29.87,10.0,SE,3.5,-,N/A,,Partly Cloudy,140,2013-08-25 23:53:00
6:53 PM,86.0,39.9,20,29.86,10.0,ENE,4.6,-,N/A,,Clear,60,2013-08-26 00:53:00
7:53 PM,81.0,41.0,24,29.88,10.0,NNE,3.5,-,N/A,,Clear,20,2013-08-26 01:53:00
8:53 PM,75.9,42.1,30,29.88,10.0,West,9.2,-,N/A,,Clear,270,2013-08-26 02:53:00
9:53 PM,73.0,42.1,33,29.90,10.0,West,8.1,-,N/A,,Clear,270,2013-08-26 03:53:00
10:53 PM,75.0,42.1,31,29.88,10.0,SW,5.8,-,N/A,,Clear,230,2013-08-26 04:53:00
11:53 PM,75.9,39.9,27,29.88,10.0,SW,5.8,-,N/A,,Clear,230,2013-08-26 05:53:00